QPF
0.07 0.07 0.07 0.06 0.05 0.06 0.07 0.08 0.08 0.06 0.04 0.04 0.04 0.04 0.03 0.02 0.01 0.01 0.01 0.01 0.01 0.02 0.02 0.01 0.01 0.01 0.01 0.01 0.02 0.02 0.03 0.04 0.04 0.04 0.03 0.04 0.05 0.05 0.06 0.05 0.04 0.04 0.05
0.05 0.05 0.05 0.05 0.05 0.05 0.06 0.08 0.09 0.08 0.06 0.05 0.05 0.05 0.05 0.04 0.03 0.02 0.01 0.01 0.01 0.01 0.01 0.01 0.01 0.01 0.01 0.00 0.01 0.01 0.01 0.02 0.03 0.03 0.04 0.04 0.04 0.06 0.08 0.08 0.07 0.05 0.04
0.05 0.04 0.05 0.04 0.03 0.04 0.06 0.09 0.09 0.08 0.07 0.06 0.05 0.04 0.05 0.04 0.03 0.03 0.02 0.01 0.01 0.01 0.01 0.01 0.01 0.01 0.01 0.01 0.01 0.01 0.01 0.02 0.02 0.02 0.02 0.03 0.03 0.06 0.07 0.09 0.09 0.09 0.07
0.05 0.04 0.03 0.03 0.03 0.03 0.05 0.06 0.06 0.06 0.06 0.06 0.05 0.04 0.03 0.03 0.02 0.02 0.01 0.01 0.00 0.00 0.01 0.02 0.02 0.01 0.01 0.01 0.01 0.00 0.01 0.01 0.01 0.02 0.02 0.02 0.03 0.04 0.04 0.06 0.07 0.08 0.08
0.03 0.03 0.03 0.03 0.03 0.04 0.04 0.04 0.03 0.03 0.03 0.04 0.04 0.03 0.02 0.02 0.02 0.01 0.01 0.00 0.00 0.00 0.00 0.01 0.01 0.02 0.02 0.01 0.01 0.01 0.01 0.01 0.01 0.02 0.02 0.03 0.05 0.03 0.02 0.03 0.04 0.05 0.05
0.03 0.04 0.04 0.03 0.02 0.02 0.03 0.03 0.04 0.04 0.04 0.03 0.03 0.02 0.01 0.01 0.02 0.01 0.01 0.00 0.00 0.00 0.00 0.01 0.01 0.01 0.01 0.01 0.01 0.01 0.01 0.01 0.02 0.02 0.02 0.04 0.06 0.05 0.03 0.02 0.03 0.04 0.04
0.02 0.02 0.03 0.02 0.02 0.02 0.02 0.02 0.03 0.04 0.05 0.05 0.04 0.03 0.03 0.03 0.03 0.02 0.01 0.00 0.00 0.00 0.00 0.01 0.01 0.01 0.01 0.01 0.01 0.01 0.01 0.01 0.02 0.02 0.02 0.03 0.03 0.04 0.04 0.02 0.02 0.03 0.03
0.01 0.01 0.02 0.02 0.01 0.01 0.01 0.02 0.02 0.03 0.04 0.04 0.05 0.04 0.03 0.03 0.03 0.02 0.02 0.01 0.01 0.00 0.00 0.01 0.01 0.01 0.01 0.01 0.01 0.01 0.00 0.01 0.01 0.02 0.02 0.01 0.01 0.02 0.02 0.02 0.02 0.03 0.03
0.01 0.01 0.01 0.02 0.02 0.02 0.02 0.02 0.02 0.02 0.03 0.05 0.04 0.03 0.03 0.02 0.02 0.01 0.01 0.02 0.02 0.01 0.00 0.00 0.01 0.01 0.01 0.02 0.01 0.01 0.01 0.01 0.01 0.01 0.01 0.01 0.00 0.00 0.01 0.02 0.02 0.03 0.03
0.01 0.01 0.01 0.02 0.03 0.03 0.03 0.03 0.03 0.03 0.03 0.04 0.03 0.03 0.03 0.02 0.02 0.01 0.01 0.02 0.01 0.01 0.01 0.00 0.01 0.01 0.01 0.01 0.01 0.01 0.01 0.01 0.01 0.01 0.01 0.00 0.01 0.01 0.01 0.01 0.02 0.02 0.03
0.02 0.01 0.01 0.02 0.03 0.04 0.04 0.03 0.03 0.03 0.04 0.05 0.04 0.04 0.04 0.04 0.03 0.02 0.01 0.01 0.01 0.01 0.02 0.01 0.01 0.00 0.00 0.00 0.01 0.01 0.01 0.01 0.01 0.01 0.01 0.01 0.01 0.01 0.01 0.01 0.01 0.02 0.02
0.03 0.02 0.01 0.02 0.04 0.06 0.05 0.03 0.03 0.03 0.04 0.04 0.04 0.03 0.02 0.02 0.02 0.01 0.01 0.01 0.01 0.01 0.01 0.01 0.01 0.00 0.00 0.00 0.00 0.01 0.01 0.01 0.01 0.01 0.01 0.01 0.01 0.01 0.02 0.01 0.01 0.01 0.01
0.03 0.02 0.01 0.01 0.03 0.05 0.06 0.04 0.02 0.01 0.01 0.01 0.01 0.01 0.00 0.00 0.00 0.00 0.00 0.00 0.01 0.01 0.01 0.02 0.01 0.00 0.01 0.01 0.01 0.01 0.01 0.01 0.01 0.01 0.01 0.01 0.01 0.02 0.02 0.01 0.01 0.01 0.01
0.01 0.01 0.01 0.01 0.01 0.02 0.03 0.02 0.01 0.01 0.00 0.01 0.01 0.01 0.00 0.00 0.00 0.00 0.00 0.00 0.00 0.00 0.01 0.01 0.01 0.01 0.00 0.01 0.01 0.01 0.01 0.01 0.01 0.01 0.01 0.02 0.02 0.02 0.02 0.02 0.02 0.01 0.01
0.01 0.01 0.01 0.01 0.01 0.01 0.01 0.01 0.01 0.01 0.01 0.01 0.01 0.01 0.00 0.00 0.00 0.00 0.00 0.00 0.00 0.00 0.00 0.01 0.01 0.01 0.01 0.01 0.01 0.01 0.01 0.01 0.01 0.01 0.01 0.02 0.02 0.02 0.03 0.04 0.03 0.02 0.02
0.02 0.01 0.01 0.01 0.00 0.00 0.00 0.00 0.00 0.01 0.01 0.01 0.00 0.01 0.01 0.01 0.01 0.01 0.01 0.00 0.00 0.00 0.01 0.01 0.01 0.01 0.01 0.01 0.01 0.01 0.01 0.01 0.01 0.01 0.02 0.02 0.02 0.02 0.02 0.02 0.02 0.02 0.02
0.02 0.02 0.01 0.00 0.00 0.00 0.00 0.00 0.01 0.00 0.01 0.00 0.01 0.01 0.01 0.01 0.01 0.01 0.01 0.01 0.01 0.01 0.01 0.01 0.01 0.01 0.01 0.01 0.01 0.01 0.01 0.01 0.01 0.01 0.02 0.02 0.01 0.02 0.02 0.01 0.01 0.01 0.01
0.01 0.02 0.01 0.01 0.01 0.00 0.01 0.01 0.01 0.01 0.01 0.01 0.01 0.01 0.01 0.01 0.01 0.01 0.01 0.01 0.02 0.02 0.02 0.01 0.01 0.01 0.01 0.01 0.01 0.01 0.01 0.01 0.01 0.01 0.01 0.01 0.01 0.01 0.02 0.01 0.01 0.01 0.01
0.01 0.01 0.01 0.01 0.01 0.01 0.01 0.01 0.01 0.01 0.01 0.01 0.01 0.01 0.01 0.02 0.02 0.02 0.02 0.03 0.03 0.03 0.02 0.02 0.02 0.01 0.01 0.01 0.01 0.01 0.01 0.01 0.01 0.01 0.01 0.02 0.02 0.01 0.01 0.01 0.01 0.01 0.01
0.01 0.01 0.01 0.01 0.01 0.01 0.01 0.01 0.02 0.02 0.01 0.01 0.01 0.02 0.02 0.02 0.02 0.02 0.02 0.03 0.03 0.03 0.02 0.02 0.02 0.02 0.02 0.01 0.01 0.01 0.01 0.01 0.01 0.01 0.01 0.01 0.03 0.03 0.02 0.02 0.01 0.01 0.01
0.00 0.01 0.01 0.01 0.01 0.01 0.01 0.01 0.01 0.02 0.02 0.02 0.02 0.03 0.03 0.02 0.02 0.02 0.02 0.03 0.03 0.03 0.03 0.03 0.03 0.03 0.02 0.02 0.02 0.02 0.02 0.02 0.02 0.02 0.02 0.02 0.02 0.02 0.01 0.01 0.02 0.01 0.01
0.00 0.00 0.01 0.01 0.01 0.01 0.01 0.01 0.02 0.02 0.02 0.02 0.02 0.02 0.02 0.02 0.02 0.02 0.02 0.03 0.03 0.03 0.04 0.04 0.04 0.04 0.04 0.04 0.03 0.03 0.03 0.03 0.03 0.03 0.03 0.04 0.03 0.02 0.01 0.01 0.02 0.02 0.02
0.00 0.00 0.00 0.01 0.01 0.02 0.02 0.02 0.02 0.02 0.02 0.02 0.03 0.03 0.04 0.04 0.03 0.03 0.03 0.03 0.02 0.02 0.02 0.03 0.03 0.03 0.05 0.05 0.04 0.04 0.04 0.03 0.03 0.02 0.03 0.04 0.04 0.03 0.02 0.02 0.02 0.03 0.03
0.00 0.00 0.01 0.01 0.01 0.02 0.02 0.02 0.02 0.02 0.02 0.02 0.03 0.04 0.04 0.03 0.03 0.03 0.04 0.02 0.02 0.02 0.02 0.02 0.02 0.02 0.03 0.04 0.04 0.04 0.04 0.04 0.04 0.03 0.03 0.04 0.04 0.04 0.03 0.02 0.02 0.02 0.03
0.00 0.00 0.01 0.01 0.01 0.02 0.02 0.02 0.01 0.01 0.02 0.02 0.02 0.03 0.02 0.02 0.02 0.03 0.02 0.02 0.02 0.01 0.02 0.02 0.02 0.02 0.02 0.03 0.03 0.02 0.02 0.03 0.03 0.04 0.03 0.03 0.03 0.04 0.05 0.05 0.04 0.03 0.03
0.00 0.00 0.01 0.01 0.02 0.01 0.01 0.01 0.01 0.01 0.01 0.02 0.02 0.02 0.02 0.02 0.02 0.02 0.01 0.02 0.02 0.02 0.02 0.02 0.02 0.02 0.02 0.03 0.02 0.02 0.02 0.02 0.03 0.03 0.04 0.03 0.03 0.03 0.04 0.05 0.05 0.04 0.05
MSLP
1017.24 1017.12 1017.00 1016.83 1016.58 1016.23 1015.78 1015.27 1014.72 1014.19 1013.70 1013.27 1012.92 1012.62 1012.37 1012.12 1011.87 1011.61 1011.33 1011.04 1010.78 1010.56 1010.40 1010.30 1010.28 1010.31 1010.40 1010.53 1010.70 1010.89 1011.10 1011.34 1011.62 1011.92 1012.25 1012.59 1012.93 1013.24 1013.53 1013.79 1014.01 1014.20 1014.36
1017.23 1017.12 1017.02 1016.87 1016.66 1016.35 1015.95 1015.49 1015.00 1014.51 1014.06 1013.67 1013.34 1013.07 1012.83 1012.61 1012.37 1012.13 1011.87 1011.59 1011.32 1011.08 1010.88 1010.73 1010.63 1010.60 1010.62 1010.69 1010.81 1010.96 1011.16 1011.39 1011.66 1011.96 1012.27 1012.58 1012.88 1013.16 1013.41 1013.62 1013.80 1013.97 1014.12
1017.11 1017.02 1016.92 1016.79 1016.60 1016.32 1015.97 1015.57 1015.13 1014.70 1014.31 1013.97 1013.69 1013.45 1013.25 1013.05 1012.85 1012.63 1012.39 1012.13 1011.87 1011.61 1011.38 1011.20 1011.06 1010.97 1010.93 1010.95 1011.02 1011.14 1011.29 1011.49 1011.73 1011.98 1012.25 1012.52 1012.78 1013.00 1013.20 1013.37 1013.52 1013.66 1013.81
1016.95 1016.86 1016.77 1016.65 1016.46 1016.21 1015.89 1015.53 1015.15 1014.79 1014.45 1014.17 1013.94 1013.75 1013.59 1013.43 1013.26 1013.07 1012.84 1012.60 1012.34 1012.09 1011.85 1011.64 1011.48 1011.35 1011.28 1011.25 1011.28 1011.34 1011.45 1011.59 1011.77 1011.97 1012.18 1012.39 1012.58 1012.76 1012.91 1013.05 1013.17 1013.30 1013.44
1016.80 1016.71 1016.61 1016.48 1016.29 1016.05 1015.76 1015.44 1015.11 1014.81 1014.54 1014.31 1014.13 1013.99 1013.86 1013.73 1013.58 1013.40 1013.19 1012.96 1012.71 1012.46 1012.22 1012.01 1011.83 1011.70 1011.59 1011.53 1011.51 1011.53 1011.58 1011.66 1011.76 1011.89 1012.03 1012.17 1012.31 1012.44 1012.56 1012.68 1012.79 1012.91 1013.05
1016.68 1016.59 1016.48 1016.33 1016.14 1015.90 1015.63 1015.34 1015.06 1014.81 1014.59 1014.42 1014.29 1014.18 1014.07 1013.96 1013.82 1013.64 1013.44 1013.21 1012.96 1012.72 1012.49 1012.28 1012.10 1011.96 1011.84 1011.76 1011.70 1011.66 1011.65 1011.66 1011.69 1011.74 1011.82 1011.90 1011.99 1012.09 1012.20 1012.31 1012.42 1012.55 1012.68
1016.60 1016.50 1016.38 1016.22 1016.02 1015.78 1015.52 1015.27 1015.03 1014.83 1014.67 1014.54 1014.44 1014.36 1014.27 1014.15 1014.00 1013.82 1013.61 1013.37 1013.12 1012.88 1012.66 1012.46 1012.28 1012.13 1012.01 1011.90 1011.81 1011.73 1011.66 1011.61 1011.58 1011.56 1011.57 1011.61 1011.67 1011.75 1011.85 1011.96 1012.09 1012.22 1012.35
1016.55 1016.45 1016.31 1016.14 1015.94 1015.71 1015.47 1015.25 1015.06 1014.90 1014.78 1014.69 1014.62 1014.55 1014.46 1014.34 1014.18 1013.98 1013.75 1013.50 1013.24 1012.99 1012.77 1012.57 1012.39 1012.24 1012.10 1011.98 1011.86 1011.74 1011.63 1011.52 1011.43 1011.37 1011.34 1011.34 1011.38 1011.45 1011.54 1011.66 1011.80 1011.93 1012.07
1016.51 1016.41 1016.27 1016.09 1015.89 1015.68 1015.47 1015.29 1015.13 1015.02 1014.94 1014.88 1014.83 1014.77 1014.68 1014.54 1014.37 1014.15 1013.90 1013.63 1013.36 1013.10 1012.87 1012.66 1012.48 1012.31 1012.16 1012.01 1011.87 1011.71 1011.56 1011.42 1011.29 1011.19 1011.13 1011.10 1011.12 1011.19 1011.28 1011.41 1011.54 1011.67 1011.79
1016.47 1016.37 1016.23 1016.07 1015.88 1015.69 1015.51 1015.36 1015.25 1015.17 1015.12 1015.09 1015.05 1015.00 1014.91 1014.76 1014.58 1014.34 1014.08 1013.79 1013.51 1013.24 1012.99 1012.77 1012.57 1012.38 1012.21 1012.03 1011.85 1011.67 1011.49 1011.31 1011.16 1011.03 1010.94 1010.90 1010.91 1010.96 1011.05 1011.16 1011.28 1011.40 1011.49
1016.42 1016.33 1016.20 1016.05 1015.89 1015.72 1015.57 1015.46 1015.37 1015.32 1015.30 1015.28 1015.26 1015.21 1015.11 1014.97 1014.78 1014.55 1014.28 1013.99 1013.70 1013.41 1013.15 1012.90 1012.67 1012.46 1012.25 1012.04 1011.83 1011.61 1011.40 1011.20 1011.02 1010.88 1010.77 1010.72 1010.71 1010.74 1010.81 1010.90 1010.99 1011.07 1011.13
1016.36 1016.28 1016.18 1016.05 1015.91 1015.77 1015.64 1015.54 1015.48 1015.44 1015.42 1015.41 1015.39 1015.34 1015.26 1015.12 1014.94 1014.72 1014.46 1014.18 1013.89 1013.60 1013.32 1013.05 1012.78 1012.52 1012.27 1012.02 1011.77 1011.52 1011.28 1011.06 1010.87 1010.71 1010.59 1010.52 1010.49 1010.50 1010.54 1010.59 1010.64 1010.69 1010.71
1016.30 1016.24 1016.15 1016.04 1015.92 1015.80 1015.69 1015.60 1015.54 1015.49 1015.46 1015.44 1015.41 1015.37 1015.29 1015.17 1015.01 1014.81 1014.58 1014.32 1014.04 1013.75 1013.46 1013.16 1012.86 1012.56 1012.25 1011.95 1011.66 1011.38 1011.11 1010.87 1010.66 1010.49 1010.36 1010.28 1010.23 1010.21 1010.21 1010.23 1010.24 1010.24 1010.23
1016.24 1016.20 1016.13 1016.04 1015.93 1015.81 1015.70 1015.60 1015.52 1015.45 1015.39 1015.35 1015.30 1015.24 1015.16 1015.06 1014.93 1014.77 1014.58 1014.35 1014.10 1013.81 1013.51 1013.19 1012.85 1012.50 1012.15 1011.80 1011.47 1011.15 1010.86 1010.60 1010.39 1010.21 1010.08 1009.98 1009.91 1009.87 1009.85 1009.83 1009.81 1009.78 1009.74
1016.18 1016.14 1016.09 1016.01 1015.90 1015.79 1015.66 1015.53 1015.41 1015.30 1015.20 1015.11 1015.03 1014.95 1014.88 1014.79 1014.69 1014.57 1014.42 1014.23 1014.00 1013.73 1013.42 1013.08 1012.71 1012.33 1011.93 1011.54 1011.17 1010.82 1010.51 1010.25 1010.03 1009.85 1009.72 1009.62 1009.55 1009.50 1009.45 1009.42 1009.38 1009.33 1009.28
1016.08 1016.05 1016.00 1015.93 1015.83 1015.70 1015.55 1015.39 1015.21 1015.05 1014.89 1014.75 1014.63 1014.53 1014.44 1014.37 1014.29 1014.20 1014.08 1013.93 1013.73 1013.47 1013.17 1012.82 1012.43 1012.01 1011.58 1011.15 1010.75 1010.38 1010.07 1009.80 1009.58 1009.42 1009.30 1009.21 1009.14 1009.09 1009.04 1009.00 1008.96 1008.91 1008.86
1015.92 1015.90 1015.86 1015.79 1015.68 1015.54 1015.37 1015.16 1014.95 1014.72 1014.51 1014.31 1014.14 1014.01 1013.90 1013.82 1013.76 1013.68 1013.59 1013.47 1013.29 1013.05 1012.75 1012.39 1011.99 1011.55 1011.09 1010.65 1010.23 1009.86 1009.54 1009.28 1009.08 1008.93 1008.82 1008.74 1008.69 1008.65 1008.61 1008.57 1008.54 1008.50 1008.47
1015.67 1015.66 1015.62 1015.56 1015.45 1015.31 1015.11 1014.88 1014.62 1014.35 1014.09 1013.84 1013.62 1013.45 1013.32 1013.22 1013.15 1013.08 1013.00 1012.89 1012.72 1012.49 1012.20 1011.84 1011.42 1010.98 1010.52 1010.06 1009.64 1009.27 1008.96 1008.71 1008.52 1008.38 1008.29 1008.23 1008.19 1008.16 1008.13 1008.10 1008.08 1008.06 1008.05
1015.33 1015.32 1015.30 1015.24 1015.15 1015.00 1014.80 1014.55 1014.27 1013.96 1013.66 1013.37 1013.11 1012.90 1012.74 1012.62 1012.52 1012.45 1012.36 1012.24 1012.08 1011.85 1011.55 1011.19 1010.78 1010.34 1009.88 1009.43 1009.02 1008.66 1008.35 1008.11 1007.93 1007.81 1007.72 1007.66 1007.62 1007.59 1007.56 1007.54 1007.52 1007.51 1007.51
1014.90 1014.89 1014.88 1014.84 1014.76 1014.62 1014.43 1014.18 1013.90 1013.58 1013.25 1012.94 1012.65 1012.41 1012.21 1012.06 1011.94 1011.83 1011.72 1011.59 1011.41 1011.18 1010.88 1010.52 1010.12 1009.68 1009.24 1008.80 1008.40 1008.05 1007.76 1007.52 1007.34 1007.20 1007.11 1007.03 1006.97 1006.92 1006.88 1006.84 1006.81 1006.79 1006.79
1014.40 1014.40 1014.40 1014.37 1014.31 1014.19 1014.02 1013.79 1013.52 1013.21 1012.88 1012.55 1012.25 1011.98 1011.76 1011.57 1011.42 1011.28 1011.14 1010.98 1010.79 1010.54 1010.24 1009.89 1009.49 1009.07 1008.65 1008.23 1007.84 1007.50 1007.20 1006.96 1006.76 1006.60 1006.46 1006.35 1006.25 1006.15 1006.06 1005.98 1005.92 1005.87 1005.85
1013.87 1013.87 1013.87 1013.86 1013.81 1013.72 1013.57 1013.37 1013.12 1012.84 1012.53 1012.21 1011.91 1011.63 1011.39 1011.17 1010.99 1010.81 1010.64 1010.46 1010.24 1009.98 1009.68 1009.34 1008.96 1008.56 1008.15 1007.75 1007.38 1007.04 1006.73 1006.46 1006.23 1006.02 1005.82 1005.64 1005.47 1005.30 1005.14 1005.00 1004.88 1004.79 1004.73
1013.34 1013.33 1013.33 1013.32 1013.28 1013.21 1013.09 1012.93 1012.71 1012.46 1012.19 1011.90 1011.61 1011.34 1011.09 1010.86 1010.65 1010.46 1010.26 1010.05 1009.82 1009.55 1009.26 1008.92 1008.57 1008.19 1007.80 1007.42 1007.06 1006.71 1006.39 1006.08 1005.79 1005.51 1005.24 1004.97 1004.70 1004.44 1004.19 1003.97 1003.78 1003.62 1003.51
1012.82 1012.79 1012.78 1012.76 1012.73 1012.67 1012.58 1012.45 1012.28 1012.08 1011.84 1011.60 1011.34 1011.09 1010.86 1010.63 1010.42 1010.21 1010.00 1009.78 1009.55 1009.28 1009.00 1008.68 1008.35 1007.99 1007.63 1007.27 1006.90 1006.55 1006.19 1005.84 1005.49 1005.13 1004.77 1004.40 1004.04 1003.67 1003.33 1003.01 1002.74 1002.51 1002.34
1012.31 1012.27 1012.23 1012.20 1012.17 1012.12 1012.05 1011.95 1011.83 1011.67 1011.50 1011.30 1011.10 1010.89 1010.68 1010.48 1010.28 1010.08 1009.88 1009.66 1009.43 1009.18 1008.91 1008.62 1008.31 1007.98 1007.64 1007.29 1006.93 1006.56 1006.17 1005.78 1005.36 1004.93 1004.48 1004.02 1003.55 1003.09 1002.65 1002.25 1001.89 1001.60 1001.37
1011.81 1011.74 1011.68 1011.63 1011.59 1011.55 1011.51 1011.44 1011.37 1011.27 1011.16 1011.03 1010.89 1010.74 1010.58 1010.42 1010.25 1010.08 1009.89 1009.70 1009.48 1009.25 1009.01 1008.74 1008.45 1008.15 1007.83 1007.49 1007.13 1006.74 1006.33 1005.89 1005.42 1004.92 1004.39 1003.85 1003.30 1002.77 1002.25 1001.77 1001.34 1000.98 1000.69
Thickness
5636 5632 5629 5626 5622 5620 5618 5617 5616 5614 5613 5610 5608 5606 5603 5601 5599 5598 5597 5596 5595 5594 5594 5594 5594 5594 5594 5594 5595 5595 5595 5595 5595 5598 5601 5604 5606 5609 5612 5614 5617 5620 5623
5630 5626 5622 5618 5615 5613 5612 5611 5609 5608 5606 5604 5602 5599 5597 5595 5593 5591 5590 5589 5588 5587 5587 5587 5587 5588 5587 5587 5587 5587 5587 5588 5588 5590 5592 5595 5598 5601 5603 5606 5609 5612 5616
5624 5619 5615 5612 5609 5607 5605 5604 5603 5601 5599 5597 5595 5593 5591 5589 5587 5585 5584 5583 5582 5581 5581 5581 5581 5581 5580 5579 5579 5579 5580 5582 5582 5583 5585 5587 5590 5593 5595 5598 5601 5604 5607
5619 5614 5610 5606 5603 5601 5599 5598 5596 5595 5593 5591 5589 5587 5585 5583 5581 5580 5578 5577 5576 5576 5576 5575 5575 5574 5574 5573 5574 5573 5574 5574 5575 5576 5578 5580 5582 5585 5586 5589 5592 5595 5598
5614 5609 5605 5602 5599 5596 5594 5592 5591 5589 5588 5587 5584 5582 5580 5578 5576 5575 5573 5572 5571 5570 5570 5570 5570 5570 5570 5569 5569 5568 5568 5568 5568 5570 5571 5573 5575 5577 5579 5582 5584 5587 5590
5609 5605 5601 5598 5595 5592 5589 5587 5586 5584 5583 5581 5579 5577 5575 5574 5572 5571 5569 5567 5566 5565 5565 5565 5565 5565 5565 5565 5565 5565 5564 5563 5563 5564 5566 5567 5569 5572 5574 5576 5577 5579 5582
5605 5602 5598 5595 5591 5589 5587 5584 5582 5579 5578 5576 5574 5572 5570 5569 5569 5567 5566 5564 5562 5561 5560 5560 5561 5561 5559 5559 5559 5560 5560 5561 5561 5560 5561 5563 5565 5567 5569 5570 5571 5573 5576
5603 5599 5596 5592 5589 5586 5583 5580 5578 5576 5573 5571 5570 5568 5567 5566 5566 5565 5563 5561 5558 5557 5556 5555 5554 5554 5555 5554 5554 5554 5554 5555 5557 5558 5559 5560 5561 5562 5563 5565 5566 5568 5570
5601 5597 5594 5590 5586 5583 5580 5577 5575 5572 5571 5569 5567 5566 5564 5563 5563 5562 5561 5557 5555 5553 5553 5552 5551 5550 5551 5550 5549 5549 5550 5551 5553 5554 5555 5556 5557 5558 5558 5559 5560 5561 5563
5600 5596 5593 5588 5584 5581 5578 5575 5573 5571 5568 5567 5565 5564 5562 5561 5561 5560 5558 5554 5551 5549 5549 5548 5548 5548 5547 5547 5545 5545 5545 5547 5548 5550 5551 5552 5553 5554 5555 5555 5556 5556 5557
5599 5595 5591 5587 5583 5580 5577 5574 5572 5569 5567 5565 5563 5562 5561 5560 5559 5558 5556 5552 5549 5547 5545 5545 5545 5546 5545 5544 5543 5542 5543 5544 5545 5546 5547 5548 5550 5551 5552 5553 5553 5554 5554
5598 5594 5590 5586 5584 5581 5577 5574 5571 5568 5566 5564 5562 5561 5560 5559 5558 5556 5554 5551 5548 5545 5544 5544 5543 5544 5544 5543 5543 5543 5543 5543 5542 5542 5544 5546 5547 5550 5552 5552 5553 5553 5554
5597 5592 5589 5586 5584 5581 5577 5574 5571 5568 5565 5563 5561 5559 5559 5558 5557 5556 5553 5551 5548 5544 5544 5544 5544 5543 5543 5543 5544 5544 5543 5542 5541 5541 5542 5544 5546 5548 5549 5550 5551 5551 5552
5595 5591 5588 5586 5583 5581 5578 5575 5572 5569 5566 5564 5562 5559 5558 5557 5555 5554 5551 5550 5548 5545 5543 5543 5544 5544 5543 5544 5544 5544 5544 5542 5541 5541 5542 5543 5545 5546 5546 5547 5547 5547 5548
5595 5592 5589 5587 5584 5581 5579 5576 5574 5572 5569 5566 5563 5561 5558 5556 5557 5554 5551 5549 5546 5544 5542 5541 5542 5542 5542 5543 5543 5544 5544 5544 5543 5543 5542 5542 5543 5544 5545 5545 5545 5544 5544
5596 5593 5590 5587 5584 5581 5579 5577 5577 5574 5572 5569 5566 5563 5561 5559 5557 5555 5553 5550 5548 5545 5541 5540 5541 5541 5541 5542 5542 5544 5545 5545 5545 5545 5544 5543 5543 5543 5544 5544 5543 5543 5544
5597 5594 5591 5588 5585 5582 5579 5576 5574 5574 5574 5571 5569 5567 5564 5561 5559 5556 5553 5550 5548 5545 5541 5541 5541 5542 5543 5543 5543 5544 5545 5547 5547 5546 5545 5544 5544 5544 5543 5543 5543 5543 5544
5600 5597 5593 5590 5587 5583 5580 5578 5575 5573 5571 5571 5572 5569 5567 5564 5561 5557 5554 5550 5548 5547 5543 5543 5544 5545 5545 5545 5546 5546 5547 5548 5547 5547 5546 5546 5545 5544 5544 5544 5543 5543 5544
5602 5598 5595 5592 5588 5585 5582 5579 5577 5575 5572 5571 5570 5570 5569 5566 5563 5559 5555 5550 5549 5549 5548 5547 5547 5547 5547 5547 5547 5548 5548 5547 5547 5547 5547 5546 5546 5544 5543 5544 5544 5544 5543
5604 5602 5598 5593 5590 5587 5584 5581 5578 5575 5573 5571 5570 5569 5568 5564 5561 5559 5555 5552 5550 5550 5550 5549 5549 5549 5548 5548 5548 5548 5547 5547 5546 5546 5546 5546 5545 5544 5543 5543 5543 5543 5543
5606 5603 5600 5596 5592 5589 5585 5582 5579 5576 5574 5572 5571 5571 5568 5564 5562 5560 5557 5555 5553 5552 5551 5550 5550 5549 5549 5548 5547 5547 5546 5545 5544 5544 5544 5544 5544 5543 5542 5542 5541 5542 5542
5608 5604 5601 5597 5593 5590 5587 5584 5581 5578 5576 5574 5572 5572 5570 5565 5562 5560 5559 5557 5556 5554 5553 5551 5550 5549 5548 5548 5546 5545 5544 5542 5541 5540 5540 5540 5540 5540 5539 5539 5538 5538 5538
5610 5606 5602 5599 5595 5592 5588 5584 5581 5579 5576 5575 5572 5570 5568 5565 5563 5561 5559 5558 5556 5554 5553 5551 5549 5548 5547 5545 5543 5541 5540 5539 5538 5537 5536 5536 5536 5536 5535 5535 5535 5535 5534
5612 5607 5603 5599 5596 5591 5588 5585 5582 5579 5577 5575 5572 5570 5567 5565 5563 5561 5559 5557 5555 5553 5551 5549 5547 5544 5542 5541 5539 5537 5535 5534 5533 5532 5532 5531 5531 5531 5530 5530 5530 5531 5530
5613 5608 5604 5599 5596 5592 5589 5585 5582 5579 5577 5574 5572 5569 5566 5563 5561 5558 5556 5554 5552 5550 5547 5545 5542 5540 5538 5536 5533 5531 5529 5527 5526 5525 5525 5525 5525 5525 5524 5525 5524 5524 5524
5613 5609 5604 5600 5596 5593 5589 5585 5582 5579 5576 5573 5571 5568 5564 5561 5558 5556 5553 5551 5548 5545 5543 5540 5537 5534 5531 5528 5526 5524 5522 5521 5519 5517 5516 5517 5517 5517 5517 5518 5518 5517 5517